Dryden, TX

2:16 AM CDT on June 25, 2017 (GMT -0500)
Dryden

Weather History for K6R6 - May, 2014

Change the Weather History Date:

Saturday, May 17, 2014

  Actual Average (KFST) Record (KFST)
Temperature  
Mean Temperature 79 °F -  
Max Temperature 98 °F 88 °F 102 °F (2001)
Min Temperature 61 °F 61 °F 55 °F (2015)
Cooling Degree Days 14    
Growing Degree Days 29 (Base 50)    
Moisture  
Dew Point 38 °F    
Average Humidity 23    
Maximum Humidity 38    
Minimum Humidity 13    
Precipitation  
Precipitation 0.00 in - - ()
Sea Level Pressure  
Sea Level Pressure 29.81 in    
Wind  
Wind Speed 6 mph (ENE)    
Max Wind Speed 17 mph    
Max Gust Speed 23 mph    
Averages and records for this station are not official NWS values.
T = Trace of Precipitation, MM = Missing Value Source: NWS Daily Summary

Daily Weather History Graph

Daily Weather History Graph

Search for Another Location

Airport or City:

Trip Planner

Search our weather history database for the weather conditions in past years. The results will help you decide how hot, cold, wet, or windy it might be!

Date:

Astronomy

May. 17, 2014 Rise Set
Actual Time 6:54 AM CDT 8:36 PM CDT
Civil Twilight 6:27 AM CDT 9:03 PM CDT
Nautical Twilight 5:56 AM CDT 9:34 PM CDT
Astronomical Twilight 5:22 AM CDT 10:08 PM CDT
Moon 11:41 PM CDT (5/17) 9:38 AM CDT (5/17)
Length of Visible Light 14h 35m
Length of Day
13h 42m
Waning Gibbous, 89% of the Moon is Illuminated
May 17
Waning Gibbous
May 21
Last Quarter
May 28
New
Jun 5
First Quarter
Jun 12
Full

Hourly Weather History & Observations

Time (CDT) Temp. Dew Point Humidity Pressure Visibility Wind Dir Wind Speed Gust Speed Precip Events Conditions
12:53 AM 77.0 °F 23.0 °F 13% 29.82 in - Calm Calm - N/A   Unknown
1:53 AM 71.1 °F 24.1 °F 17% 29.82 in - NNE 5.8 mph - N/A   Unknown
2:53 AM 68.0 °F 25.0 °F 20% 29.82 in - NNE 5.8 mph - N/A   Unknown
3:53 AM 66.9 °F 27.0 °F 22% 29.81 in - NNE 6.9 mph - N/A   Unknown
4:53 AM 64.9 °F 28.0 °F 25% 29.81 in - NE 4.6 mph - N/A   Unknown
5:53 AM 63.0 °F 30.0 °F 29% 29.82 in - NE 6.9 mph - N/A   Unknown
6:53 AM 61.0 °F 33.1 °F 35% 29.83 in - NNE 5.8 mph - N/A   Unknown
7:53 AM 66.0 °F 37.9 °F 36% 29.84 in - ENE 3.5 mph - N/A   Unknown
8:53 AM 70.0 °F 43.0 °F 38% 29.86 in - ESE 8.1 mph - N/A   Unknown
9:53 AM 73.9 °F 44.1 °F 34% 29.86 in - Variable 4.6 mph - N/A   Unknown
10:53 AM 80.1 °F 44.1 °F 28% 29.86 in - NE 5.8 mph - N/A   Unknown
11:53 AM 84.9 °F 42.1 °F 22% 29.85 in - North - - N/A   Unknown
12:53 PM 89.1 °F 39.9 °F 18% 29.83 in - North - - N/A   Unknown
1:53 PM 91.9 °F 39.0 °F 16% 29.82 in - Variable 6.9 mph - N/A   Unknown
2:53 PM 95.0 °F 41.0 °F 15% 29.80 in - East 9.2 mph - N/A   Unknown
3:53 PM 96.1 °F 39.0 °F 14% 29.78 in - ESE 4.6 mph - N/A   Unknown
4:53 PM 97.0 °F 39.9 °F 14% 29.76 in - East 8.1 mph - N/A   Unknown
5:53 PM 96.1 °F 39.9 °F 14% 29.75 in - ESE 9.2 mph - N/A   Unknown
6:53 PM 96.1 °F 42.1 °F 15% 29.74 in - East 12.7 mph - N/A   Unknown
7:53 PM 93.0 °F 45.0 °F 19% 29.74 in - East 17.3 mph 21.9 mph N/A   Unknown
8:53 PM 89.1 °F 46.9 °F 23% 29.76 in - East 13.8 mph - N/A   Unknown
9:53 PM 84.9 °F 46.9 °F 27% 29.78 in - East 9.2 mph - N/A   Unknown
10:53 PM 84.0 °F 46.9 °F 27% 29.79 in - East 12.7 mph 20.7 mph N/A   Unknown
11:53 PM 84.0 °F 46.0 °F 26% 29.80 in - ESE 17.3 mph 23.0 mph N/A   Unknown